Home   Weather   Dakar   Past weeks
Flag for Senegal

Past Weather in Dakar, Senegal — Yesterday and Last 2 Weeks

Now
86 °F

Sunny.


Feels Like: 93 °F
Forecast: N/A
Wind: 9 mph from West

Location: Dakar / Yoff

Current Time: Jul 22, 2019 at 2:29:31 pm

Latest Report: Jul 22, 2019 at 1:00 pm


Visibility: 10 mi

Pressure: 29.86 "Hg

Humidity: 66%

Dew Point: 73 °F

Location of DakarLocation

Past Weather in Dakar — Graph

°F

Dakar Temperature Yesterday

Maximum temperature yesterday: 86 °F (at 2:00 pm)
Minimum temperature yesterday: 77 °F (at 3:00 am)
Average temperature yesterday: 82 °F

High & Low Weather Summary for the Past Weeks

 TemperatureHumidityPressure
High88 °F (Jul 14, 2:00 pm)94% (Jul 19, 3:00 am)30.04 "Hg (Jul 19, 3:00 am)
Low75 °F (Jul 9, 6:00 am)62% (Jul 16, 11:00 am)29.83 "Hg (Jul 16, 6:00 pm)
Average80 °F77%29.92 "Hg
* Reported Jul 7 12:00 pm — Jul 22 12:00 pm, Dakar. Weather by CustomWeather, © 2019

Note: Actual official high and low records may vary slightly from our data, if they occured in-between our weather recording intervals... More about our weather records

Advertising

Dakar Weather History for the Previous 24 Hours

Scroll right to see more
 ConditionsComfort  
Time TempWeatherWind HumidityBarometerVisibility
12:00 pm
Mon, Jul 22
86 °FSunny.12 mph66%29.89 "Hg10 mi
11:00 am84 °FSunny.12 mph70%29.89 "Hg10 mi
10:00 am82 °FSunny.12 mph74%29.89 "Hg10 mi
9:00 am81 °FSunny.9 mph84%29.89 "Hg10 mi
8:00 am81 °FSunny.12 mph79%29.89 "Hg10 mi
7:00 am79 °FClear.12 mph84%29.89 "Hg5 mi
6:00 am79 °FClear.12 mph84%29.89 "Hg5 mi
3:00 am79 °FClear.12 mph84%29.92 "Hg5 mi
2:00 am79 °FClear.7 mph84%29.92 "Hg5 mi
1:00 am79 °FClear.9 mph84%29.95 "Hg5 mi
12:00 am79 °FClear.7 mph89%29.95 "Hg5 mi
11:00 pm
Sun, Jul 21
79 °FPassing clouds.12 mph84%29.95 "Hg5 mi
7:00 pm82 °FSunny.7 mph79%29.92 "Hg10 mi
6:00 pm84 °FPassing clouds.9 mph74%29.92 "HgN/A
5:00 pm86 °FSunny.9 mph70%29.92 "Hg10 mi
4:00 pm86 °FPassing clouds.9 mph70%29.92 "HgN/A
3:00 pm84 °FScattered clouds.9 mph74%29.92 "HgN/A
2:00 pm86 °FPassing clouds.7 mph70%29.95 "HgN/A
Weather by CustomWeather, © 2019

See weather overview